Location: Miramichi City (Newcastle)
(46.9830°N, 65.5670°W)
Time: 00:39:02
(UTC-03:00)

Iridium 12 - Visible Passes

Search period start: 18 September 2014 00:00
Search period end: 28 September 2014 00:00
Orbit: 776 x 779 km, 86.4° (Epoch: 17 September)

Date Brightness Start Highest point End Pass type
(mag) Time Alt. Az. Time Alt. Az. Time Alt. Az.
18 Sep 6.1 04:37:26 17° SSE 04:41:20 55° E 04:46:25 10° NNE visible
18 Sep 6.8 06:18:32 10° WSW 06:22:26 21° WNW 06:26:21 10° NNW visible
19 Sep 7.1 04:04:43 17° SE 04:07:58 32° E 04:12:33 10° NNE visible
19 Sep 6.1 05:45:14 17° SW 05:48:37 35° WNW 05:53:24 10° NNW visible
20 Sep 7.9 03:31:57 13° ESE 03:34:44 19° ENE 03:38:16 10° NE visible
20 Sep 5.5 05:12:28 30° SSW 05:14:56 61° W 05:20:07 10° N visible
21 Sep 8.4 03:00:36 10° E 03:01:37 11° ENE 03:02:37 10° ENE visible
21 Sep 5.6 04:39:38 43° SSE 04:41:23 78° E 04:46:36 10° N visible
21 Sep 7.1 06:20:08 11° WSW 06:22:46 15° WNW 06:25:47 10° NW visible
22 Sep 6.5 04:06:45 38° ESE 04:07:56 44° E 04:12:52 10° NNE visible
22 Sep 6.5 05:47:15 22° WSW 05:48:52 26° WNW 05:53:11 10° NNW visible
23 Sep 7.3 03:33:50 25° E 03:34:38 26° E 03:38:52 10° NNE visible
23 Sep 5.8 05:14:20 41° WSW 05:15:06 44° W 05:20:05 10° N visible
24 Sep 8.0 03:00:52 15° E 03:01:26 15° ENE 03:04:19 10° NE visible
24 Sep 5.3 04:41:22 76° W 04:41:28 76° W 04:46:42 10° N visible
24 Sep 7.4 06:21:53 10° W 06:23:09 11° WNW 06:24:26 10° NW visible
25 Sep 5.9 04:08:23 60° ENE 04:08:23 60° ENE 04:13:06 10° N visible
25 Sep 6.9 05:48:53 19° WNW 05:49:09 19° WNW 05:52:48 10° NNW visible
26 Sep 7.0 03:35:22 34° ENE 03:35:22 34° ENE 03:39:16 10° NNE visible
26 Sep 6.4 05:15:51 31° WNW 05:15:51 31° WNW 05:19:57 10° NNW visible
27 Sep 7.8 03:02:19 20° ENE 03:02:19 20° ENE 03:05:06 10° NNE visible
27 Sep 6.1 04:42:48 44° NW 04:42:48 44° NW 04:46:43 10° N visible
